Temperature
19 20 20 20 23 23 23 23 23 23 23 22 21 22 23 23 23 22 19 18 17 17 16 15 15 14 13 13 13 13 13 12 12 12 11 11 11 11 11 11 11 11 11 11 11 11 11 12 12
19 20 20 22 23 23 23 23 23 23 22 20 20 21 22 22 20 19 18 18 17 16 15 15 15 14 13 13 13 13 12 12 11 11 11 11 11 11 11 11 11 11 11 11 11 11 11 11 12
20 20 21 23 23 23 23 23 23 22 21 21 21 21 22 22 19 18 18 18 17 16 15 15 15 14 14 13 13 13 12 12 11 11 11 11 10 10 11 11 11 11 11 11 11 11 11 11 11
20 20 22 23 23 23 23 24 23 22 21 20 22 22 21 19 18 18 18 18 16 16 15 15 15 14 14 13 13 13 12 12 11 11 11 11 11 10 11 11 11 11 11 11 11 11 11 11 11
20 22 23 22 22 23 23 22 22 23 22 22 21 23 21 19 19 19 18 17 16 15 15 15 15 14 14 13 13 13 12 12 11 11 11 11 10 11 11 11 11 11 11 11 11 11 11 11 11
21 22 23 22 23 23 23 21 22 23 23 21 21 22 21 19 19 18 18 17 16 15 15 14 14 14 13 13 13 13 12 12 11 11 11 11 11 11 11 11 11 11 11 11 11 11 11 11 11
21 22 22 22 22 22 23 21 22 23 23 22 21 22 21 18 18 18 17 16 16 15 15 14 14 14 14 13 13 12 12 12 11 11 11 11 11 11 11 11 11 11 11 10 10 10 10 10 10
20 22 21 22 22 22 22 21 21 22 23 21 20 22 22 19 19 18 17 16 15 15 15 14 14 13 13 13 13 12 12 12 11 11 11 11 11 11 11 10 10 10 10 10 10 10 10 10 10
19 21 21 22 22 22 21 21 21 20 21 20 19 20 20 19 19 18 17 16 15 15 15 14 14 13 13 12 12 12 12 11 11 11 11 11 10 10 10 10 10 10 10 10 10 10 10 10 10
20 21 21 22 22 22 21 21 21 20 21 21 20 19 20 19 19 18 18 17 16 16 15 14 14 13 13 12 12 12 11 11 11 10 10 10 10 10 10 10 10 10 10 10 10 10 10 10 9
20 21 21 21 20 20 21 21 20 21 22 22 22 20 19 19 18 18 18 18 17 16 16 15 14 14 13 13 12 12 11 11 11 10 10 10 10 10 10 10 10 10 10 10 10 10 9 9 10
20 20 20 20 19 19 20 20 20 20 22 21 20 20 19 19 19 18 18 17 17 16 16 16 15 14 13 13 12 12 12 11 11 11 10 10 10 10 10 10 9 9 9 9 9 9 9 9 9
20 20 19 19 18 18 19 20 20 20 20 20 19 19 18 19 19 19 18 17 16 16 16 16 15 14 14 13 13 12 12 11 11 11 11 10 10 10 10 10 10 9 9 9 9 9 9 9 9
19 19 19 19 19 18 19 20 19 20 20 19 19 18 18 18 18 18 18 17 17 17 17 16 16 15 14 13 13 13 12 12 11 11 11 11 10 10 10 10 10 9 9 9 9 9 9 9 9
18 19 20 19 19 18 18 20 20 20 19 19 19 19 18 18 18 18 18 18 18 17 17 16 16 15 14 14 13 13 12 12 12 11 11 11 10 10 10 10 10 10 9 9 9 9 9 9 9
19 19 19 20 19 18 18 20 22 19 19 20 20 20 19 18 18 19 18 18 18 17 17 16 16 16 15 14 14 13 12 12 12 11 11 11 10 10 10 10 10 10 9 9 9 9 9 9 9
18 19 19 20 19 18 19 20 22 19 19 19 20 20 19 19 18 18 19 18 18 17 17 17 16 16 15 15 14 13 13 12 12 12 11 11 10 10 10 10 10 10 9 9 9 9 9 9 9
18 19 19 19 19 18 18 20 21 20 19 20 20 20 19 19 18 18 18 18 18 18 17 17 16 16 15 14 13 13 12 12 12 12 11 11 11 10 10 10 10 10 9 9 9 9 9 9 9
18 18 19 19 18 18 19 19 21 21 20 19 20 20 19 19 18 18 18 18 18 18 17 17 16 16 15 14 14 13 13 13 12 12 12 11 11 11 10 10 10 10 10 9 9 9 9 9 9
17 17 18 18 17 17 18 19 20 20 20 19 19 19 19 19 18 18 19 18 18 18 18 17 17 16 16 15 15 14 13 13 13 12 12 11 11 11 10 10 10 10 10 9 9 9 9 9 9
16 17 18 18 17 17 17 19 21 20 19 18 18 18 18 18 18 18 18 18 19 18 18 18 17 17 16 16 15 14 13 13 12 12 12 12 11 11 11 10 10 10 10 9 9 9 9 9 9
16 17 17 16 17 18 17 18 21 21 20 20 20 19 19 18 18 18 18 18 18 18 18 18 17 17 17 16 15 14 14 13 13 13 12 12 12 11 11 11 10 10 10 9 9 9 9 9 8
17 16 16 16 16 17 17 17 20 20 20 21 21 20 19 18 18 18 18 18 19 18 18 18 17 17 16 16 15 15 14 14 13 12 12 12 12 11 11 11 10 10 10 10 9 9 9 9 8
15 15 14 15 16 16 17 17 19 21 21 21 21 20 18 18 18 18 18 18 18 18 18 18 17 17 16 16 15 15 14 14 13 13 12 12 12 11 11 11 10 10 10 10 9 9 9 9 8
15 15 15 15 15 17 16 16 19 21 20 20 20 19 18 18 18 18 18 18 18 18 18 18 17 17 16 16 15 15 15 14 13 13 12 12 12 11 11 11 10 10 10 10 9 9 9 8 8
15 16 16 16 17 18 15 16 20 20 19 17 17 17 17 17 18 18 18 18 18 18 18 18 18 17 17 16 16 15 14 14 13 13 12 12 12 12 11 11 10 10 10 9 9 9 8 8 8
14 15 16 16 16 16 17 17 19 19 18 18 17 17 17 17 18 18 18 18 18 18 18 18 18 17 17 16 15 15 14 14 13 13 12 12 12 12 11 11 10 10 10 9 9 9 8 8 8
15 15 14 14 15 16 17 18 19 20 20 19 19 18 18 17 17 18 18 18 18 18 18 18 18 17 17 16 16 15 14 14 14 13 13 12 12 11 11 11 10 10 9 9 9 8 8 8 7
13 13 14 15 15 16 17 19 19 20 20 20 19 19 18 17 17 17 18 18 18 18 18 17 17 17 16 16 15 15 14 14 13 13 13 12 12 11 11 10 10 10 9 9 9 8 8 7 7
14 14 14 14 14 15 17 19 19 18 18 17 18 17 17 17 17 17 17 18 17 17 17 17 17 17 16 16 15 15 14 14 13 13 12 12 12 11 11 10 10 9 9 9 8 8 8 7 7
Wind_Speed
2 3 4 3 4 3 4 4 4 5 4 3 3 4 3 1 1 2 4 11 11 15 17 18 15 15 14 14 14 13 12 11 11 11 11 11 11 11 11 12 12 12 12 13 13 13 13 13 13
2 3 4 3 4 5 5 5 6 5 4 5 4 4 4 2 1 4 7 12 13 16 16 16 17 15 15 14 14 13 12 11 10 10 10 10 10 11 11 11 11 11 12 12 12 12 12 12 12
3 3 3 3 4 4 4 5 6 5 6 5 5 3 2 3 4 6 9 14 14 15 15 16 17 16 15 14 14 13 12 11 10 10 10 10 10 10 10 10 10 11 10 10 10 10 11 11 11
3 3 3 5 6 4 2 4 6 8 6 4 4 4 3 2 3 6 12 15 15 15 15 16 17 16 16 15 14 13 13 12 10 10 10 9 10 10 10 9 9 9 9 9 9 9 9 10 10
2 3 6 7 6 4 4 3 7 8 6 6 6 4 5 5 4 9 14 15 15 15 15 17 17 16 16 15 14 13 12 12 11 10 10 9 9 9 9 8 8 8 8 8 8 8 8 9 8
3 4 7 8 7 5 5 6 7 8 6 5 6 5 4 6 8 11 14 14 14 14 14 15 17 15 16 15 14 14 13 12 11 10 9 9 9 8 8 7 7 7 7 7 7 7 7 7 7
4 5 7 7 7 7 5 6 9 8 8 7 5 5 5 8 9 11 14 13 14 14 14 14 16 16 16 15 14 14 13 12 12 11 10 9 8 8 7 6 6 6 6 6 7 6 6 6 6
3 4 7 8 8 7 5 6 5 8 7 3 5 6 4 9 11 12 13 12 13 13 14 14 15 15 15 15 15 14 13 13 12 11 10 9 8 8 7 6 6 6 6 6 5 5 6 6 6
4 7 9 9 8 6 5 6 5 4 5 5 5 3 3 10 13 13 12 12 13 13 14 14 14 14 14 13 15 15 14 13 12 11 11 10 8 7 6 6 6 5 5 5 5 5 5 3 4
6 10 11 6 6 4 5 6 6 6 8 8 7 6 6 11 14 16 17 17 17 17 16 14 14 14 14 12 13 13 13 13 12 10 11 9 7 6 5 7 5 4 4 4 4 3 1 1 1
6 9 8 7 6 5 5 6 5 8 10 11 11 10 11 12 15 17 18 18 18 18 17 15 15 15 14 12 12 11 10 11 11 11 10 8 7 6 6 5 6 5 4 2 2 1 1 2 2
7 8 7 7 6 6 7 6 8 12 11 7 8 7 12 15 17 18 19 18 17 17 18 17 16 15 15 14 12 11 10 10 10 11 11 9 7 6 6 5 4 4 3 2 1 1 1 2 2
11 8 8 7 7 7 8 11 11 14 13 8 6 8 13 15 16 17 16 16 16 17 18 18 17 16 15 14 11 11 11 11 11 11 11 11 8 7 6 5 5 4 3 3 2 2 1 2 2
8 9 8 8 9 7 10 13 11 14 10 10 10 12 13 14 16 15 16 16 17 18 18 18 19 18 16 14 12 12 12 12 11 11 12 12 9 8 7 6 5 5 4 3 3 3 2 2 2
7 8 10 9 9 7 8 14 16 14 10 12 13 13 13 14 14 16 17 17 18 18 17 18 18 18 18 16 15 12 12 13 12 12 13 13 12 10 8 7 6 6 6 5 4 3 3 3 3
7 9 11 9 8 7 8 15 10 7 10 13 13 13 13 13 15 15 16 16 16 16 17 18 15 18 18 16 15 13 13 13 12 12 13 14 14 12 10 7 7 7 6 6 4 4 4 4 4
9 11 13 9 7 7 11 14 9 7 10 13 14 14 13 13 14 14 15 15 15 16 17 17 18 19 18 17 14 14 13 13 12 12 12 14 15 14 11 9 8 8 7 6 5 5 5 4 4
11 12 11 11 6 8 13 18 15 11 12 15 14 14 13 13 13 12 13 14 15 15 16 17 18 18 17 14 12 11 12 11 12 12 13 15 14 15 13 10 10 9 7 7 7 7 5 5 4
9 11 12 10 5 8 14 19 19 15 14 15 14 13 12 12 10 9 10 12 13 14 16 17 17 17 15 13 13 12 12 11 11 12 15 16 15 15 14 10 10 10 9 9 9 7 7 6 4
13 14 14 9 6 8 14 20 19 15 14 13 13 12 11 10 9 8 9 11 13 15 16 16 17 17 17 15 14 12 11 10 11 10 13 16 16 16 14 13 10 10 9 10 9 8 6 5 5
17 17 15 11 6 7 10 15 13 11 11 11 12 12 11 10 9 8 9 11 12 14 15 14 17 17 18 16 12 10 9 7 9 11 11 14 17 16 16 15 13 11 11 10 10 10 10 7 6
16 15 13 11 9 8 5 10 13 10 12 13 13 12 11 10 9 8 9 11 12 13 13 14 15 16 17 16 15 16 13 12 13 11 11 13 16 16 16 15 14 12 11 11 11 10 9 9 7
10 6 9 10 11 12 10 10 12 9 12 13 12 12 11 9 8 8 8 9 10 11 11 12 14 15 16 17 17 17 15 13 11 11 12 12 12 15 15 15 13 12 11 12 11 11 11 9 9
7 5 4 5 7 12 14 12 12 10 12 10 10 10 9 8 8 7 7 7 8 9 10 11 13 14 15 17 17 18 17 15 13 13 12 11 10 11 14 14 13 13 11 12 12 11 12 11 11
11 8 6 7 8 10 8 11 13 11 10 10 9 9 9 8 8 8 8 8 8 9 10 11 13 14 15 16 17 17 17 16 16 14 13 12 10 10 13 13 13 12 12 12 11 11 11 12 11
17 15 11 8 9 8 8 12 11 9 9 10 11 10 9 10 9 9 8 8 8 9 10 12 13 14 14 15 16 15 15 13 12 14 12 12 10 10 11 13 13 13 12 11 11 10 11 10 11
12 14 12 8 7 9 9 9 11 10 11 12 12 11 12 11 10 9 8 8 8 9 10 12 13 13 14 14 14 14 15 14 13 12 12 10 10 9 11 12 12 12 12 11 11 10 11 10 10
9 9 7 9 8 11 11 13 10 10 12 11 12 13 12 11 11 10 9 8 8 8 9 10 11 12 12 13 13 11 13 13 12 11 12 11 11 10 10 11 11 11 11 11 11 10 10 11 10
11 11 9 9 8 9 11 10 8 11 9 10 11 11 11 12 11 9 8 7 7 7 8 10 10 11 11 12 12 12 12 12 11 11 11 11 10 10 11 11 11 11 11 11 11 11 11 11 11
16 16 15 11 10 9 10 9 2 6 6 7 8 8 9 10 9 9 8 7 7 8 9 9 10 10 10 10 11 11 11 11 11 11 11 10 10 9 9 9 10 10 10 10 11 11 11 11 11
Wind_Direction
247 197 200 216 209 205 198 175 181 169 175 163 163 192 206 208 301 41 107 151 147 153 157 160 161 158 152 143 137 132 127 121 114 108 105 101 97 94 89 85 80 77 74 71 69 67 66 65 65
230 203 215 226 224 205 188 188 190 180 143 139 162 182 189 174 77 105 141 154 154 155 159 162 158 159 153 147 143 138 133 128 123 118 114 109 103 99 93 88 84 80 76 73 70 69 69 67 66
194 231 228 211 220 217 174 176 180 158 157 173 170 194 219 137 141 143 147 156 157 157 161 156 159 160 157 153 149 145 139 135 130 125 122 115 109 105 98 92 87 84 80 77 74 72 70 67 66
210 204 220 225 213 214 201 163 164 162 173 203 198 181 173 102 129 139 146 158 160 160 162 158 165 163 160 157 154 150 145 141 135 131 127 121 115 109 103 96 91 87 84 80 78 75 71 67 66
221 222 212 216 219 212 215 200 183 185 181 187 206 196 162 135 128 143 156 162 163 162 164 162 169 167 163 159 157 154 151 147 141 136 132 128 121 114 109 102 96 91 86 83 80 76 72 68 64
200 222 221 218 212 212 209 198 196 209 200 187 204 206 159 140 154 156 162 166 166 163 166 164 170 170 166 163 161 159 158 155 150 145 140 134 127 122 116 111 104 98 92 87 81 77 70 66 63
216 218 230 225 219 217 206 193 208 212 215 203 201 211 165 160 158 159 165 168 168 168 170 171 173 173 170 168 167 166 165 164 159 153 147 140 135 129 122 116 110 103 97 90 81 74 68 63 59
224 213 222 223 223 220 192 192 218 222 225 181 201 222 186 156 152 157 164 170 173 175 178 177 178 176 176 175 172 171 170 169 165 157 149 143 141 136 128 130 116 109 102 90 80 70 65 60 53
217 226 227 220 221 218 190 205 201 219 216 195 212 239 84 136 150 157 165 176 181 185 186 185 183 181 181 179 171 174 175 173 169 165 155 163 167 156 150 121 120 117 107 94 80 70 63 61 74
212 229 230 221 222 222 200 216 204 203 217 215 211 200 151 159 169 175 180 184 188 191 191 190 189 185 184 180 179 184 183 181 187 182 176 182 176 164 151 131 133 128 118 108 84 73 81 313 20
217 232 228 224 225 233 225 225 216 227 234 233 230 211 181 181 189 194 196 195 194 192 192 195 193 189 187 185 187 187 187 188 193 192 186 183 179 173 177 173 168 168 172 168 138 216 334 342 351
225 231 234 231 219 227 237 238 234 233 245 251 243 219 188 196 200 204 205 202 196 194 195 196 195 193 193 191 191 192 192 191 192 194 193 189 190 192 188 196 189 192 194 194 228 282 311 315 317
227 232 233 238 233 238 246 245 252 249 250 251 233 209 208 210 211 212 212 207 201 199 198 197 197 196 196 197 197 199 199 196 195 195 198 198 198 199 196 202 200 205 208 213 232 252 279 294 311
231 233 238 240 238 238 249 256 249 252 247 239 231 227 223 221 219 215 211 210 206 204 200 197 198 199 198 198 200 202 202 200 200 198 200 202 205 204 201 204 206 209 215 227 237 250 267 284 293
230 238 242 236 236 237 250 255 242 249 241 240 236 234 232 229 224 221 215 213 210 207 202 199 199 200 201 203 204 205 204 202 203 203 203 203 207 207 205 210 210 211 213 219 229 238 255 268 272
215 232 240 227 225 222 232 257 244 231 234 244 245 243 238 234 229 226 221 218 214 208 203 199 197 201 203 204 205 206 206 205 205 204 204 206 207 207 207 212 216 212 211 217 225 234 244 252 263
218 232 237 233 213 221 230 258 257 232 245 254 254 252 246 240 233 226 221 217 213 209 203 199 199 202 203 204 206 207 207 207 208 205 206 207 208 207 208 214 217 211 213 219 223 233 245 255 262
221 229 235 238 217 229 244 258 266 259 254 257 257 254 249 242 236 228 219 215 211 209 205 201 200 202 201 202 206 207 209 210 211 209 210 208 208 208 210 214 216 211 213 217 220 227 236 252 261
236 235 242 245 235 246 257 267 271 268 256 254 254 251 247 241 236 225 218 211 206 203 203 202 200 200 197 197 200 202 207 209 211 213 214 211 210 210 211 213 214 212 217 220 223 226 232 237 242
232 241 248 254 239 253 271 274 272 262 253 250 249 246 241 235 227 220 212 204 202 201 201 201 201 199 198 199 199 203 205 210 212 211 214 214 213 211 211 214 214 212 218 221 221 219 230 231 220
230 238 244 250 265 247 281 274 256 246 245 246 243 242 240 235 232 223 210 204 201 201 201 200 200 199 199 198 197 194 196 203 207 211 213 214 214 213 212 214 216 215 215 220 220 216 221 230 224
232 231 238 244 256 260 256 278 265 250 251 242 235 229 230 228 229 224 212 205 203 203 200 201 199 199 198 196 197 197 201 208 212 211 212 212 213 215 215 215 217 218 219 222 221 219 221 229 232
229 211 221 236 248 261 242 257 267 247 247 237 226 220 221 223 224 222 215 209 204 199 195 198 197 198 197 198 200 204 211 216 216 212 213 213 212 214 214 215 216 219 220 223 221 218 219 222 230
173 163 192 223 241 251 238 238 264 239 237 232 219 216 215 219 222 221 215 207 202 195 193 194 196 198 198 199 203 207 212 214 213 211 212 213 213 212 214 214 216 219 220 222 222 220 219 221 228
190 195 213 220 224 242 219 234 251 249 240 240 236 227 221 221 220 215 210 204 199 194 193 194 196 198 198 200 205 209 213 215 216 215 216 214 214 213 213 211 215 218 220 221 221 221 222 223 226
202 207 218 231 238 239 216 236 248 251 247 247 248 247 240 228 219 214 211 207 202 198 196 195 197 198 197 200 205 209 212 214 218 217 218 217 218 217 214 212 216 218 218 218 219 223 226 227 228
197 214 229 250 263 259 237 245 266 252 242 237 235 233 229 221 214 213 209 207 204 201 200 197 196 197 198 201 204 208 210 212 216 217 219 220 221 218 215 213 215 217 218 218 219 223 225 225 228
214 188 187 213 230 242 245 242 240 229 225 220 220 220 220 216 214 214 213 211 211 208 201 199 199 199 199 200 202 206 209 211 214 215 217 218 219 216 215 214 215 217 218 218 220 225 227 226 228
189 194 203 211 229 236 248 243 228 237 238 234 228 224 220 216 215 215 215 213 211 206 199 197 198 199 198 200 201 203 206 207 209 213 215 216 217 215 217 216 216 218 220 220 221 225 226 228 232
211 208 202 211 222 231 251 256 210 242 257 253 247 240 234 226 221 218 217 214 209 204 200 197 196 198 198 196 198 201 202 202 206 211 213 213 215 215 216 217 220 221 222 221 223 227 226 229 232
Height
1528 1528 1529 1530 1529 1526 1527 1526 1525 1527 1528 1530 1531 1532 1530 1530 1531 1536 1536 1534 1536 1538 1539 1540 1542 1544 1545 1546 1547 1547 1548 1548 1548 1548 1548 1547 1547 1547 1546 1546 1545 1545 1544 1544 1543 1543 1542 1542 1541
1528 1528 1530 1530 1525 1528 1527 1524 1525 1525 1528 1531 1532 1532 1531 1531 1533 1534 1533 1534 1536 1538 1540 1541 1542 1544 1545 1546 1547 1547 1548 1548 1548 1548 1548 1548 1548 1547 1547 1547 1546 1546 1545 1545 1544 1544 1543 1543 1542
1528 1528 1530 1525 1524 1523 1524 1522 1523 1527 1530 1531 1531 1532 1531 1532 1533 1533 1534 1534 1536 1538 1540 1541 1542 1544 1545 1547 1547 1548 1548 1548 1549 1549 1549 1549 1548 1548 1548 1547 1547 1547 1546 1546 1545 1545 1544 1544 1543
1528 1530 1529 1524 1524 1522 1521 1521 1525 1527 1530 1531 1530 1530 1532 1532 1533 1533 1533 1534 1537 1538 1540 1541 1543 1544 1546 1547 1548 1548 1548 1549 1549 1549 1549 1549 1549 1549 1549 1548 1548 1548 1547 1547 1546 1546 1545 1545 1544
1528 1528 1524 1524 1523 1521 1522 1524 1526 1525 1527 1529 1529 1528 1530 1531 1531 1532 1533 1535 1537 1539 1541 1542 1543 1545 1546 1547 1548 1548 1549 1549 1549 1550 1550 1550 1550 1549 1549 1549 1549 1549 1548 1548 1547 1547 1546 1546 1545
1528 1525 1523 1522 1520 1521 1522 1524 1525 1524 1525 1528 1529 1527 1529 1530 1530 1532 1533 1535 1537 1539 1540 1542 1543 1544 1546 1547 1548 1548 1549 1549 1550 1550 1550 1550 1550 1550 1550 1550 1550 1549 1549 1549 1548 1548 1547 1546 1545
1526 1523 1521 1520 1520 1520 1521 1523 1523 1523 1524 1526 1527 1526 1527 1529 1530 1531 1533 1535 1537 1538 1540 1542 1543 1544 1545 1547 1548 1548 1549 1550 1550 1550 1551 1551 1551 1551 1550 1550 1550 1550 1550 1549 1549 1548 1548 1547 1546
1524 1522 1521 1519 1519 1519 1520 1522 1522 1523 1523 1525 1526 1525 1525 1528 1528 1530 1532 1534 1536 1537 1539 1541 1542 1544 1545 1546 1547 1548 1549 1550 1550 1551 1551 1551 1551 1551 1551 1551 1550 1550 1550 1550 1549 1548 1548 1547 1546
1523 1522 1519 1517 1518 1517 1520 1521 1522 1522 1523 1523 1523 1524 1524 1524 1526 1528 1530 1531 1533 1535 1537 1539 1541 1543 1544 1546 1546 1547 1548 1549 1550 1550 1551 1551 1552 1552 1552 1551 1551 1551 1550 1550 1549 1549 1548 1547 1546
1522 1519 1515 1515 1516 1516 1518 1519 1520 1520 1520 1520 1521 1521 1521 1522 1524 1525 1526 1528 1530 1532 1534 1536 1539 1540 1542 1544 1545 1547 1548 1548 1549 1550 1550 1551 1552 1552 1551 1551 1551 1550 1550 1550 1549 1549 1548 1547 1547
1518 1515 1514 1516 1517 1518 1517 1518 1518 1517 1515 1516 1517 1519 1519 1520 1521 1522 1524 1525 1527 1529 1531 1533 1536 1538 1540 1541 1543 1545 1546 1547 1548 1549 1550 1550 1551 1551 1551 1551 1550 1550 1550 1550 1549 1549 1548 1547 1546
1516 1515 1515 1515 1517 1517 1516 1516 1515 1514 1513 1514 1514 1515 1515 1516 1517 1519 1521 1523 1525 1526 1528 1530 1533 1535 1537 1539 1541 1542 1544 1545 1546 1547 1548 1549 1549 1550 1550 1550 1550 1550 1550 1549 1549 1548 1548 1547 1546
1514 1513 1514 1515 1515 1515 1515 1514 1512 1510 1511 1511 1511 1511 1512 1513 1514 1516 1518 1520 1521 1523 1525 1527 1529 1531 1534 1536 1538 1540 1541 1543 1544 1545 1546 1547 1548 1548 1549 1549 1549 1549 1549 1548 1548 1548 1547 1546 1545
1512 1512 1512 1513 1513 1513 1512 1510 1510 1505 1507 1507 1507 1507 1508 1509 1510 1512 1513 1515 1516 1518 1521 1523 1526 1528 1530 1533 1535 1537 1539 1540 1541 1542 1543 1544 1546 1546 1547 1547 1547 1548 1547 1547 1547 1547 1546 1545 1544
1512 1511 1509 1509 1510 1510 1511 1505 1501 1501 1503 1503 1503 1503 1503 1504 1505 1506 1508 1510 1512 1514 1517 1519 1522 1524 1527 1529 1532 1534 1535 1537 1538 1539 1541 1542 1543 1544 1544 1545 1545 1546 1546 1545 1545 1545 1544 1543 1542
1509 1508 1506 1503 1506 1507 1510 1498 1494 1497 1498 1498 1498 1498 1499 1499 1499 1501 1502 1504 1507 1509 1512 1514 1517 1520 1522 1525 1527 1530 1532 1533 1535 1536 1537 1539 1540 1541 1542 1542 1543 1543 1543 1543 1543 1543 1542 1542 1541
1505 1503 1501 1501 1503 1503 1503 1495 1491 1494 1494 1493 1493 1493 1493 1493 1494 1495 1497 1499 1501 1504 1507 1509 1512 1515 1518 1521 1523 1526 1528 1530 1531 1533 1534 1535 1536 1538 1539 1539 1540 1541 1541 1541 1541 1541 1540 1540 1539
1499 1499 1499 1498 1498 1501 1498 1491 1487 1489 1490 1488 1487 1487 1487 1487 1488 1489 1491 1493 1496 1499 1501 1504 1507 1510 1513 1516 1519 1521 1523 1525 1527 1528 1530 1531 1533 1534 1535 1536 1537 1538 1538 1538 1538 1538 1537 1537 1536
1496 1496 1496 1495 1497 1499 1493 1487 1482 1483 1483 1482 1481 1481 1481 1481 1482 1484 1485 1488 1490 1493 1496 1498 1501 1505 1508 1510 1512 1515 1517 1520 1522 1524 1525 1527 1529 1530 1531 1532 1533 1534 1534 1534 1535 1535 1534 1534 1533
1497 1497 1495 1494 1497 1497 1490 1483 1476 1475 1475 1475 1475 1475 1476 1477 1478 1479 1480 1482 1484 1487 1490 1493 1496 1499 1502 1504 1507 1510 1513 1515 1517 1519 1521 1522 1524 1526 1527 1528 1529 1530 1530 1531 1531 1531 1531 1530 1530
1495 1494 1492 1494 1494 1495 1493 1477 1469 1468 1470 1471 1471 1471 1471 1472 1473 1474 1475 1477 1479 1482 1485 1488 1491 1494 1497 1500 1503 1505 1508 1510 1512 1513 1515 1517 1519 1521 1522 1523 1524 1525 1526 1526 1526 1527 1527 1526 1526
1491 1490 1493 1495 1495 1489 1493 1482 1463 1462 1463 1463 1464 1465 1466 1467 1468 1469 1471 1472 1474 1477 1480 1483 1486 1488 1491 1494 1497 1499 1501 1503 1505 1508 1510 1512 1514 1515 1517 1518 1519 1520 1520 1521 1521 1522 1522 1522 1521
1486 1489 1492 1493 1493 1491 1488 1487 1462 1459 1458 1455 1457 1459 1461 1463 1464 1465 1466 1468 1470 1473 1475 1478 1481 1483 1486 1489 1491 1494 1496 1498 1501 1503 1505 1506 1508 1509 1511 1512 1513 1514 1515 1515 1516 1516 1516 1516 1516
1488 1491 1494 1494 1493 1491 1479 1481 1462 1451 1449 1449 1452 1455 1457 1459 1460 1461 1462 1464 1466 1468 1471 1473 1476 1478 1481 1483 1486 1488 1490 1493 1495 1497 1499 1501 1502 1503 1505 1506 1507 1508 1509 1510 1510 1510 1510 1510 1510
1485 1487 1492 1491 1489 1478 1475 1476 1457 1444 1446 1448 1450 1452 1454 1455 1456 1457 1459 1460 1462 1464 1466 1468 1471 1473 1475 1478 1480 1483 1485 1488 1489 1491 1493 1495 1496 1497 1498 1500 1501 1502 1503 1504 1504 1504 1504 1504 1504
1478 1478 1481 1482 1475 1467 1475 1468 1446 1442 1445 1446 1448 1449 1449 1451 1452 1454 1455 1456 1458 1460 1462 1464 1466 1468 1470 1473 1475 1478 1480 1482 1484 1486 1487 1489 1490 1491 1492 1494 1495 1496 1497 1497 1498 1498 1498 1498 1497
1474 1474 1470 1474 1474 1471 1460 1453 1443 1439 1439 1441 1443 1444 1445 1446 1448 1449 1451 1452 1454 1455 1457 1459 1461 1464 1466 1468 1470 1472 1474 1476 1478 1480 1482 1483 1484 1485 1486 1487 1488 1489 1490 1491 1491 1491 1491 1491 1490
1467 1467 1476 1476 1475 1469 1453 1448 1439 1432 1431 1434 1436 1438 1440 1442 1444 1445 1447 1448 1450 1451 1453 1455 1457 1459 1461 1463 1465 1467 1469 1471 1472 1474 1475 1477 1478 1479 1480 1481 1482 1483 1484 1484 1484 1484 1484 1484 1483
1467 1469 1466 1466 1462 1458 1451 1439 1427 1426 1427 1429 1431 1433 1435 1438 1440 1441 1442 1444 1445 1447 1449 1450 1452 1455 1457 1459 1460 1462 1464 1465 1467 1468 1470 1471 1472 1473 1474 1475 1476 1476 1477 1478 1478 1478 1478 1477 1477
1455 1455 1459 1462 1460 1455 1447 1436 1424 1426 1427 1429 1429 1430 1432 1433 1435 1437 1438 1440 1441 1442 1444 1446 1448 1450 1452 1454 1455 1457 1458 1460 1461 1463 1464 1465 1466 1467 1468 1469 1470 1470 1471 1471 1471 1471 1471 1470 1470